User: anonymous   Login
Location: Long Point Provincial Park
(42.5794°N, 80.4103°W)
Time: 08:32:18
(UTC-05:00)
Language:

Iridium 19 - Orbit

View from above orbital plane
View from above orbital plane
View from above satellite
View from above satellite

Ground track
Ground track

The orbit data is extracted from the following two-line orbital elements,

1 24965U 97056A   14355.31776738  .00000613  00000-0  21165-3 0   600
2 24965 086.3963 338.5971 0002213 105.3898 254.7543 14.34223638902288
Epoch (UTC): 21 December 2014 07:37:35
Eccentricity: 0.0002213
inclination: 86.3963°
perigee height: 776 km
apogee height: 779 km
right ascension of ascending node: 338.5971°
argument of perigee: 105.3898°
revolutions per day: 14.34223638
mean anomaly at epoch: 254.7543°
orbit number at epoch: 90228

The dashed part of the orbit path shows where the satellite is in the earth's shadow,  

DLR